JL1RTQ-13 Weather Reports


time (UTC)temp
F
wind
direction
speed
knots
gust
knots
rain 1hr
in
rain 24hr
in
rain mn
in
humidity
%
barometer
mb
20260509201530 54 34 1.7 3.5 0.00 0.00 0.00 54 1020.9
20260509200032 54 30 0.0 4.3 0.00 0.00 0.00 54 1020.7
20260509194532 54 47 1.7 3.5 0.00 0.00 0.00 54 1020.5
20260509193032 54 45 0.9 2.6 0.00 0.00 0.00 54 1020.0
20260509191529 55 20 1.7 5.2 0.00 0.00 0.00 51 1019.6
20260509190042 55 354 1.7 3.5 0.00 0.00 0.00 50 1019.5
20260509184536 56 338 0.9 3.5 0.00 0.00 0.00 48 1019.3
20260509183039 56 323 1.7 4.3 0.00 0.00 0.00 47 1019.3
20260509181531 57 6 2.6 4.3 0.00 0.00 0.00 46 1019.2
20260509180031 57 286 0.9 4.3 0.00 0.00 0.00 46 1019.1
20260509174528 57 309 1.7 3.5 0.00 0.00 0.00 46 1018.8
20260509173045 57 304 1.7 5.2 0.00 0.00 0.00 46 1018.8
20260509171541 58 308 2.6 3.5 0.00 0.00 0.00 46 1018.7
20260509170036 58 324 1.7 3.5 0.00 0.00 0.00 46 1018.7
20260509164536 58 306 1.7 3.5 0.00 0.00 0.00 45 1018.6
20260509163029 58 321 0.9 4.3 0.00 0.00 0.00 46 1018.5
20260509161530 58 333 0.9 3.5 0.00 0.00 0.00 46 1018.4
20260509160032 58 353 0.9 2.6 0.00 0.00 0.00 46 1018.4
20260509154529 58 356 0.9 1.7 0.00 0.00 0.00 46 1018.4
20260509153033 57 10 0.0 1.7 0.00 0.00 0.00 47 1018.4
20260509151535 58 349 0.0 0.9 0.00 0.00 0.00 47 1018.6
20260509150031 59 0 0.0 1.7 0.00 0.00 0.00 44 1018.4
20260509144530 59 266 0.0 3.5 0.00 0.00 0.00 43 1018.3
20260509143030 60 277 0.9 2.6 0.00 0.00 0.00 42 1018.1
20260509141536 60 319 0.9 3.5 0.00 0.00 0.00 41 1018.0
20260509140035 60 286 1.7 5.2 0.00 0.00 0.00 40 1017.8
20260509134538 60 339 0.0 3.5 0.00 0.00 0.00 40 1017.8
20260509133034 61 338 0.9 5.2 0.00 0.00 0.00 38 1017.7
20260509131550 61 338 1.7 5.2 0.00 0.00 0.00 36 1017.6
20260509130043 62 314 0.9 5.2 0.00 0.00 0.00 35 1017.5
20260509124539 62 237 0.0 0.9 0.00 0.00 0.00 34 1017.4
20260509123033 63 233 0.0 3.5 0.00 0.00 0.00 32 1017.3
20260509121530 63 0 0.0 4.3 0.00 0.00 0.00 32 1017.1
20260509120032 63 264 0.0 2.6 0.00 0.00 0.00 31 1017.0
20260509114531 64 294 0.9 2.6 0.00 0.00 0.00 30 1016.8
20260509113028 64 273 0.9 5.2 0.00 0.00 0.00 29 1016.7
20260509111532 64 331 1.7 4.3 0.00 0.00 0.00 29 1016.3
20260509110029 64 305 1.7 3.5 0.00 0.00 0.00 29 1016.2
20260509104530 65 314 0.0 0.9 0.00 0.00 0.00 30 1016.1
20260509103030 65 8 0.0 1.7 0.00 0.00 0.00 28 1015.9
20260509101532 65 337 0.9 3.5 0.00 0.00 0.00 28 1015.2
20260509100035 66 296 1.7 6.1 0.00 0.00 0.00 28 1015.3
20260509094530 67 342 0.9 5.2 0.00 0.00 0.00 26 1015.2
20260509093030 68 1 0.9 8.7 0.00 0.00 0.00 26 1015.0
20260509091531 68 322 3.5 9.6 0.00 0.00 0.00 25 1014.6
20260509090035 69 17 3.5 13.0 0.00 0.00 0.00 25 1014.2
20260509084535 70 357 6.1 11.3 0.00 0.00 0.00 24 1013.8
20260509083031 70 348 2.6 13.0 0.00 0.00 0.00 24 1013.6
20260509081539 71 321 4.3 13.9 0.00 0.00 0.00 25 1013.5
20260509080027 71 352 7.0 14.8 0.00 0.00 0.00 23 1013.1
20260509074531 71 339 7.0 15.6 0.00 0.00 0.00 24 1013.1
20260509073028 71 4 6.1 16.5 0.00 0.00 0.00 23 1012.5
20260509071528 72 309 8.7 19.1 0.00 0.00 0.00 23 1012.2
20260509070028 72 305 9.6 15.6 0.00 0.00 0.00 24 1012.1
20260509064532 72 2 8.7 16.5 0.00 0.00 0.00 25 1011.7
20260509063031 72 1 7.8 18.2 0.00 0.00 0.00 26 1011.9
20260509061530 72 357 9.6 17.4 0.00 0.00 0.00 26 1011.8
20260509060032 71 354 13.0 23.5 0.00 0.00 0.00 26 1011.4
20260509054540 72 7 10.4 21.7 0.00 0.00 0.00 27 1011.2
20260509053106 71 329 14.8 26.1 0.00 0.00 0.00 28 1011.5
20260509051529 71 324 9.6 20.0 0.00 0.00 0.00 28 1011.8
20260509050040 71 352 7.8 20.0 0.00 0.00 0.00 29 1012.4
20260509044530 71 321 8.7 21.7 0.00 0.00 0.00 30 1012.4
20260509043030 71 355 11.3 18.2 0.00 0.00 0.00 30 1012.8
20260509041532 70 349 10.4 20.0 0.00 0.00 0.00 31 1012.7
20260509040029 69 337 9.6 21.7 0.00 0.00 0.00 31 1012.7
20260509034530 69 349 11.3 21.7 0.00 0.00 0.00 33 1012.8
20260509033028 69 304 11.3 24.3 0.00 0.00 0.00 34 1012.7
20260509031532 69 335 8.7 20.9 0.00 0.00 0.00 34 1012.7
20260509030034 68 308 8.7 23.5 0.00 0.00 0.00 36 1012.7
20260509024531 68 335 9.6 23.5 0.00 0.00 0.00 37 1012.5
20260509023040 68 335 12.2 20.0 0.00 0.00 0.00 37 1012.7
20260509021528 68 1 11.3 22.6 0.00 0.00 0.00 37 1012.7
20260509020030 67 283 11.3 20.9 0.00 0.00 0.00 37 1012.5
20260509014537 67 340 9.6 22.6 0.00 0.00 0.00 37 1012.5
20260509013030 67 300 12.2 22.6 0.00 0.00 0.00 38 1012.5
20260509011534 67 320 11.3 21.7 0.00 0.00 0.00 38 1012.5
20260509010030 67 322 10.4 26.1 0.00 0.00 0.00 39 1012.2
20260509004533 67 342 13.0 21.7 0.00 0.00 0.00 38 1012.1
20260509003044 68 267 8.7 19.1 0.00 0.00 0.00 36 1011.5
20260509001530 68 323 8.7 17.4 0.00 0.00 0.00 34 1011.3
20260509000029 68 304 7.8 15.6 0.00 0.00 0.00 33 1011.0
20260508234532 67 332 8.7 15.6 0.00 0.00 0.00 33 1010.6
20260508233028 66 277 10.4 15.6 0.00 0.00 0.00 33 1010.8
20260508231528 66 326 7.8 17.4 0.00 0.00 0.00 35 1010.3
20260508230033 65 304 6.1 13.9 0.00 0.00 0.00 35 1010.0
20260508224531 65 319 6.1 13.9 0.00 0.00 0.00 35 1009.9
20260508223031 64 16 7.8 14.8 0.00 0.00 0.00 37 1009.6
20260508221529 63 319 7.0 15.6 0.00 0.00 0.00 37 1009.3
20260508220028 63 16 5.2 14.8 0.00 0.00 0.00 37 1008.9
20260508214532 62 18 7.0 12.2 0.00 0.00 0.00 37 1008.5
20260508213029 61 309 6.1 13.9 0.00 0.00 0.00 37 1008.1
20260508211531 61 330 6.1 12.2 0.00 0.00 0.00 36 1007.9
20260508210033 62 53 3.5 12.2 0.00 0.00 0.00 34 1007.6
20260508204528 61 328 7.0 12.2 0.00 0.00 0.00 33 1007.3
20260508203028 61 302 6.1 13.0 0.00 0.00 0.00 33 1007.2